Погода в Урске

Россия / Кемеровская область (Кузбасс)     54°27′11″N   85°23′52″E
темп.,
°C
ветер,
м/с
пор.,
м/с
влажн.,
%
обл.,
%
осадки,
мм/ч
давл.,
гПа
погр.,
м
1 марта, пн
пн101:00−12юв2496100 0.8 1024109
04:00−10ююв3895100 0.3 1020261
07:00−9юв3796100 0.9 1017314
10:00−6ююз51093100 1.3 1012922
13:00−4ююз61192100 2.4 1010995
16:00−2юз91687100 0.8 1009915
19:00−2юз71494100 1.6 1009753
22:00−3з2597100 1.7 1009258
2 марта, вт
вт201:00−8с2397100 4.8 1010123
04:00−10ссз2296100 2.3 1009108
07:00−12ссз2396100 2.8 1012109
10:00−12сз129598 0.4 1014130
13:00−8зсз139399 0.6 1015313
16:00−7сз1394100 0.4 1015313
19:00−11с1297100 0.8 101528
22:00−13с019795 0.1 101620
3 марта, ср
ср301:00−15ссв119894 0.1 101620
04:00−16юз009887 0.0 101620
07:00−15зюз119688 0.1 101820
10:00−12юз019395 0.1 1018103
13:00−8ю128992 0.2 1019398
16:00−7юз3589100 0.2 1020587
19:00−11юз369199 0.3 1022163
22:00−12юз4109197 0.0 1024336
4 марта, чт
чт401:00−12ююз5119098 0.0 1025447
04:00−14ююз4119299 0.0 1025317
07:00−14ююз5148992 0.0 1025418
10:00−10ююз7158798 0.0 1023600
13:00−7ююз9158699 0.1 1022746
16:00−5ююз81686100 0.1 1021826
19:00−5ююз81684100 0.2 1020718
22:00−6юз91876100 0.0 1019582
5 марта, пт
пт501:00−7юз91876100 0.0 1018561
04:00−7ююз8177587 0.0 1016530
07:00−8ю5138073 0.0 1014302
10:00−6ю3981100 0.0 1012277
13:00−3ююз71386100 0.1 1010628
16:00−2юз81489100 0.6 10121005
19:00−3зюз7148997 0.8 1016704
22:00−5юз7148876 0.2 1020821